Probability
10 12 14 14 12 9 7 4 2 3 3 3 3 3 4 3 1 0 0 0 0 0 0 0 0 0 0 0 0 0 0 0 0 0 0 0 0 0 0 0 0 0 0
11 12 15 16 12 9 8 7 5 4 3 3 3 3 3 3 2 1 0 0 0 0 0 0 0 0 0 0 0 0 0 0 0 0 0 0 0 0 0 0 0 0 0
12 13 14 16 14 10 9 9 8 6 4 3 2 1 2 3 2 2 1 0 0 0 0 0 0 0 0 0 0 0 0 0 0 0 0 0 0 0 0 0 0 0 0
13 11 12 15 16 12 9 9 9 8 6 4 3 1 1 1 1 1 1 0 0 0 0 0 0 0 0 0 0 0 0 0 0 0 0 0 0 0 0 0 0 0 0
11 10 10 13 14 12 10 9 8 7 7 6 5 3 1 1 0 0 0 0 0 0 0 0 0 0 0 0 0 0 0 0 0 0 0 0 0 0 0 0 0 0 0
8 9 10 12 12 11 9 8 6 6 7 7 6 5 3 2 1 0 0 0 0 0 0 0 0 0 0 0 0 0 0 0 0 0 0 0 0 0 0 0 0 0 0
7 8 10 12 12 11 8 6 5 5 6 7 7 6 5 3 2 1 0 0 0 0 0 0 0 0 0 0 0 0 1 0 0 0 0 0 0 0 0 0 0 0 0
7 8 10 11 12 13 10 6 4 4 5 6 8 7 6 4 3 2 0 0 0 0 0 0 0 0 0 0 0 0 0 0 0 0 0 0 0 0 0 0 0 0 0
9 10 10 10 11 12 12 9 5 3 3 4 6 6 6 5 3 2 0 0 0 1 0 0 0 0 0 0 0 0 0 0 0 0 0 0 0 0 0 0 0 0 0
11 11 11 11 11 11 11 9 5 3 3 3 4 4 4 4 3 1 0 0 0 0 0 0 0 0 0 0 0 0 0 0 0 0 0 0 0 0 0 0 0 0 0
14 13 12 11 11 9 7 5 4 3 3 3 3 3 2 2 1 1 0 0 0 0 0 0 0 0 0 1 1 0 0 0 0 0 0 0 0 0 0 0 0 1 1
16 14 11 11 11 9 6 4 3 3 3 3 3 3 1 0 0 0 0 0 0 0 0 0 0 0 0 0 1 1 0 0 0 0 0 0 0 0 0 0 1 2 2
13 11 9 10 10 9 7 5 4 4 4 3 3 2 1 0 0 0 0 0 0 0 0 1 1 1 0 0 0 0 0 0 0 0 0 0 0 0 0 0 1 2 3
8 8 8 9 10 9 8 5 4 5 5 4 4 3 1 0 0 0 0 0 0 0 0 2 2 1 0 1 0 0 0 0 0 0 0 0 0 1 1 1 1 2 3
5 6 9 10 11 10 8 6 5 5 5 5 5 4 2 1 1 1 0 0 0 0 0 1 1 1 0 0 0 0 0 0 0 0 0 0 0 1 1 1 1 2 3
4 8 12 12 11 10 9 7 5 5 5 5 6 5 3 2 2 2 1 0 0 0 0 0 0 0 0 0 0 0 0 0 0 0 0 0 0 0 0 0 1 2 3
6 9 12 12 11 10 10 9 7 5 4 5 6 6 4 3 3 3 1 0 0 0 0 0 0 0 0 0 0 0 0 0 0 0 0 0 0 0 0 0 1 2 3
7 8 10 10 10 10 10 10 8 6 5 5 6 6 4 3 3 3 2 1 0 0 0 0 0 0 0 0 0 0 0 0 0 0 0 0 0 0 0 0 0 1 2
6 7 8 9 10 9 10 11 10 7 6 6 6 6 4 3 3 3 2 1 0 0 0 0 0 0 0 0 0 0 0 0 0 0 0 0 0 0 0 0 0 0 1
5 5 6 8 10 11 12 12 11 9 7 6 6 6 4 3 2 2 2 1 0 0 0 0 0 0 0 0 0 0 0 0 0 0 0 0 0 0 0 0 0 0 0
4 4 5 7 9 12 14 14 12 10 8 6 6 5 3 1 1 1 1 0 0 0 0 0 1 0 0 0 0 0 0 0 0 0 0 0 0 0 0 0 0 0 0
3 3 4 6 8 11 13 13 12 11 8 5 4 3 2 0 0 0 0 0 0 0 0 0 0 0 0 0 0 0 0 0 0 0 0 0 0 0 0 0 0 0 0
2 2 3 4 6 8 9 10 11 9 7 5 4 3 2 1 0 1 1 1 1 1 0 0 0 0 0 0 0 0 0 0 0 0 0 0 0 0 0 0 0 0 0
2 2 3 4 5 5 6 7 8 7 6 5 5 4 3 2 2 2 2 2 2 2 1 1 1 1 0 0 0 0 0 0 0 0 0 0 0 0 0 0 0 0 0
2 1 2 4 4 3 3 4 5 5 5 4 4 3 3 3 3 3 3 3 3 3 3 2 2 2 1 1 1 1 0 0 0 0 0 0 0 0 0 0 0 0 0
1 1 2 3 2 1 1 1 2 4 5 4 3 3 3 3 3 3 3 3 3 3 3 3 3 3 2 2 2 1 0 0 0 0 0 0 0 0 0 0 0 0 0
Wind_Speed
6 7 8 8 8 9 9 9 9 10 10 10 10 10 10 10 10 11 11 11 11 11 12 12 12 12 12 12 12 12 12 13 13 14 14 13 14 14 13 12 12 9 14
8 9 9 9 9 9 9 10 9 9 9 10 10 10 10 10 10 10 10 10 10 10 11 11 11 11 11 11 11 11 11 10 11 11 11 11 12 13 13 13 12 9 13
9 9 8 9 9 9 9 9 9 9 9 9 9 9 9 9 10 10 9 9 9 10 10 10 10 10 11 10 10 9 9 8 8 7 8 6 7 12 12 12 12 12 12
8 8 8 9 9 9 9 9 9 9 9 9 9 8 9 9 9 9 9 9 9 9 9 9 9 9 9 9 8 8 7 6 6 5 4 5 5 10 11 11 11 11 10
8 8 9 10 9 9 9 9 9 9 8 8 8 8 8 8 8 8 8 8 8 8 8 8 8 8 8 8 7 6 5 5 5 4 4 5 5 9 10 9 9 9 9
8 9 8 9 9 9 9 9 9 9 8 8 7 7 7 7 7 7 7 7 7 7 7 7 7 7 7 6 6 5 4 4 3 2 4 4 4 8 8 8 8 8 8
8 8 8 9 8 8 9 9 9 8 7 7 7 7 6 6 6 6 6 6 6 6 6 6 6 6 5 5 4 4 4 2 1 2 3 4 5 8 7 7 7 6 7
8 8 7 8 8 8 8 8 8 7 7 7 7 7 6 6 6 6 6 5 5 5 5 5 5 5 4 4 3 3 3 3 1 2 3 3 6 7 6 6 5 5 5
8 7 5 5 6 7 7 7 7 6 6 7 7 7 6 6 6 5 5 5 4 4 4 4 4 3 3 3 2 3 3 3 2 1 3 3 5 5 4 4 4 4 4
7 6 5 4 4 4 4 6 6 6 6 6 6 6 6 5 5 4 4 4 4 4 3 3 3 2 2 1 1 2 3 3 1 1 1 3 5 4 3 3 2 3 3
6 5 4 3 3 3 3 4 5 5 5 5 4 4 3 2 3 3 3 3 3 3 2 1 1 1 1 1 2 3 3 1 0 1 2 3 4 3 2 1 1 1 2
4 4 3 3 3 3 2 3 2 2 2 2 2 2 1 2 2 2 3 3 2 1 1 1 1 2 2 2 3 3 1 1 1 1 2 3 3 2 1 1 1 1 1
3 3 3 3 3 3 2 2 1 1 1 1 2 1 1 1 1 1 1 1 0 0 0 1 1 2 1 1 1 2 1 0 0 1 2 3 2 2 2 2 2 2 2
4 3 3 3 3 3 2 1 1 1 1 1 1 1 1 1 1 1 0 0 0 0 1 1 1 1 1 2 1 2 1 0 0 1 2 3 2 2 3 3 3 3 3
3 3 2 2 3 2 2 1 2 1 1 1 1 1 1 1 1 0 0 0 0 0 1 1 1 1 1 2 1 2 1 1 1 1 1 2 2 2 3 4 4 3 3
3 3 2 2 2 2 2 1 2 1 1 1 1 1 1 1 1 1 1 1 1 1 1 1 1 1 1 1 2 2 2 1 1 1 1 2 3 3 4 4 4 4 4
2 3 3 2 2 2 2 1 1 1 1 1 1 1 1 1 1 1 1 1 1 1 2 1 1 1 1 1 2 2 2 2 2 2 2 2 2 3 4 4 4 4 4
2 2 2 2 2 2 2 1 1 1 1 1 1 1 1 1 1 1 1 1 1 1 1 1 1 1 1 1 2 2 2 2 2 2 1 2 1 2 3 4 4 4 5
2 2 3 2 3 2 2 1 1 1 1 1 1 1 1 1 1 1 1 1 1 1 1 1 1 1 2 2 2 2 2 2 2 2 2 2 2 1 2 3 4 4 5
2 2 3 3 2 2 1 1 1 1 1 1 1 1 1 1 1 1 1 1 1 1 1 1 1 1 1 2 3 3 2 2 2 2 2 2 1 2 1 1 2 3 4
3 3 2 2 2 1 1 1 0 0 1 1 1 2 1 1 1 0 1 1 1 1 1 2 1 2 2 1 1 2 3 3 2 2 1 1 1 1 1 1 1 1 2
3 3 2 2 2 1 1 1 0 0 0 0 1 2 2 2 2 1 1 1 1 1 1 2 1 1 1 1 0 1 2 2 2 2 1 1 1 0 1 2 2 2 1
2 2 2 2 2 1 1 1 1 1 0 1 1 1 1 1 1 1 1 1 1 1 1 2 2 1 2 2 1 1 1 2 2 2 2 1 1 1 1 1 2 2 2
2 2 2 2 2 1 1 1 1 1 0 1 1 1 1 1 1 1 1 1 2 1 2 2 2 2 2 2 2 2 2 1 1 2 2 1 1 2 2 2 2 2 1
3 2 1 2 2 1 1 1 1 1 0 1 1 1 1 0 1 1 1 1 2 2 2 2 2 2 2 2 2 2 2 2 1 2 3 2 2 2 1 2 1 1 1
3 2 1 1 1 1 0 1 1 1 0 0 1 2 1 1 1 1 1 1 2 2 2 2 2 3 3 3 2 2 2 2 2 2 3 3 3 2 3 2 1 1 1
Wind_Direction
104 111 110 105 103 101 99 97 95 93 92 90 88 87 88 87 85 85 85 84 83 80 80 80 79 78 76 74 74 75 76 76 76 76 74 73 73 72 70 69 68 65 68
114 113 110 106 104 101 99 96 95 93 92 90 89 88 88 87 87 87 85 84 83 83 81 80 79 79 79 78 77 78 78 77 80 81 77 73 72 71 68 65 67 69 69
108 113 112 105 103 100 96 94 94 92 93 91 91 90 90 88 87 87 85 84 85 83 83 82 80 80 80 80 79 79 79 76 75 78 85 80 75 74 72 69 70 72 72
107 112 110 106 100 100 98 95 93 91 92 92 94 94 93 90 88 88 86 85 86 85 83 82 81 81 79 79 79 78 74 67 58 66 80 81 79 79 76 74 73 75 75
101 101 105 105 100 100 99 95 93 91 90 91 92 94 94 93 91 90 89 88 86 85 82 81 82 82 79 77 76 72 66 54 46 57 76 80 77 82 80 77 74 73 76
102 99 103 103 101 97 95 95 90 87 87 89 92 90 91 92 92 92 90 89 90 89 86 83 81 79 78 76 74 66 56 41 37 55 73 83 86 87 83 80 77 76 77
98 101 104 99 100 97 94 93 88 86 85 85 89 90 92 94 91 92 93 89 90 90 90 88 84 80 75 70 65 49 32 18 54 66 80 85 91 93 88 83 82 81 82
96 99 106 97 95 96 96 92 89 88 85 83 86 87 89 94 93 91 93 92 90 91 92 90 88 84 77 67 52 30 12 358 39 78 91 94 97 95 93 88 83 85 87
91 93 96 102 99 91 93 92 89 88 85 82 82 81 79 81 85 87 87 85 86 86 90 91 91 89 81 70 40 3 348 337 329 28 95 100 107 105 99 91 87 90 96
86 92 96 97 97 98 97 91 87 83 82 78 78 78 76 77 80 81 79 77 77 77 80 87 99 97 95 79 346 329 316 313 302 15 81 100 111 114 110 103 97 102 107
79 82 89 96 95 94 97 97 96 90 83 80 80 78 80 88 86 72 76 79 75 66 64 79 117 150 156 239 267 281 291 257 111 76 83 103 120 128 133 130 126 125 124
82 81 79 81 82 88 100 107 116 115 118 108 97 93 56 46 72 81 89 87 82 64 37 276 237 233 240 237 249 262 256 227 179 134 119 119 128 145 161 184 189 188 167
100 87 78 79 81 74 75 99 90 86 106 100 87 78 70 56 67 86 106 110 137 227 260 269 255 246 243 241 243 236 248 248 134 120 129 133 144 181 207 220 225 232 224
102 89 73 79 82 76 64 78 93 82 72 65 83 84 75 58 40 63 101 93 225 250 273 273 261 266 274 266 261 270 276 305 154 132 142 140 155 200 222 235 241 239 234
109 99 84 81 83 83 75 59 78 70 69 68 44 58 65 60 45 20 359 249 300 327 267 285 295 313 312 301 283 283 284 270 248 164 147 161 179 208 225 232 236 236 231
112 111 104 94 94 91 83 64 63 70 68 75 64 44 37 33 20 357 1 352 340 318 300 280 280 290 289 297 289 285 283 263 245 199 189 182 189 208 230 233 234 236 236
111 115 114 114 98 100 92 79 77 64 55 87 84 75 40 25 10 1 7 341 331 322 319 318 301 296 295 304 298 302 295 286 268 233 202 191 192 208 226 236 240 242 242
108 108 107 103 106 103 91 84 75 57 45 45 81 82 43 22 9 1 359 315 324 339 340 329 318 312 309 302 295 286 284 280 270 255 225 195 181 198 220 235 243 248 249
121 115 107 99 103 101 95 91 78 61 41 27 29 66 34 358 2 3 310 298 329 343 336 318 326 320 306 297 288 280 278 276 266 255 236 211 195 188 191 218 238 248 250
104 100 105 109 102 107 110 89 76 53 29 38 31 27 22 12 13 358 323 321 334 341 319 308 307 309 292 289 292 287 271 255 249 232 235 226 206 199 190 193 223 247 252
108 98 96 105 110 104 102 111 113 35 0 13 27 24 23 11 1 336 330 323 326 286 282 296 305 299 301 317 318 304 284 253 245 226 219 218 218 205 203 210 213 217 239
123 115 113 110 113 106 107 138 156 150 146 77 25 13 23 14 1 355 341 292 280 276 290 294 304 286 297 315 300 310 308 305 295 260 233 208 227 213 229 241 229 225 220
122 128 129 122 112 108 110 111 94 79 65 49 17 353 350 355 357 360 359 325 282 253 248 264 261 250 264 279 263 206 238 263 304 287 247 221 231 254 257 251 243 243 232
132 124 119 114 103 103 118 123 122 105 346 317 300 299 303 326 357 340 348 349 312 291 273 262 266 264 249 257 274 262 249 252 268 304 302 284 272 258 260 272 258 248 240
124 115 109 118 101 84 93 132 134 81 11 339 335 327 290 268 2 333 335 335 319 298 283 269 272 271 255 252 251 271 278 287 254 240 277 297 304 286 275 265 256 248 239
113 105 97 100 103 98 87 96 91 102 47 330 337 335 306 287 263 282 314 304 300 301 295 284 262 263 258 257 256 250 247 252 252 243 256 272 277 276 276 255 248 252 233